Location: Capriago
(44.7000°N, 10.5167°E)
Time: 00:03:48
(UTC+00:00)

Daily predictions for brighter satellites

Satellite Brightness Start Highest point End
(mag) Time Altitude Azimuth Time Altitude Azimuth Time Altitude Azimuth
Lacrosse 4 Rocket 4.3 02:15:30 15° E 02:15:30 15° E 02:16:40 10° E
Lacrosse 5 3.2 02:42:08 35° NNE 02:42:08 35° NNE 02:46:41 10° E
Cosmos 2360 Rocket 2.8 02:43:09 10° NNW 02:48:42 53° ENE 02:54:14 10° SE
ALOS 4.4 02:45:20 10° NE 02:49:03 23° E 02:51:39 15° SE
ARIANE 5 R/B 3.9 02:50:47 10° N 02:53:20 30° N 02:53:20 30° N
CZ-2C R/B 2.9 02:55:35 10° NNE 02:59:46 53° ENE 02:59:46 53° ENE
Cosmos 1386 Rocket 4.5 03:00:51 10° N 03:07:18 85° E 03:12:09 18° S
CZ-4C R/B 4.3 03:04:17 11° SSE 03:07:18 19° ESE 03:11:01 10° ENE
H-2A R/B 4.2 03:05:51 10° ESE 03:09:20 25° ENE 03:12:45 10° N
Cosmos 2082 Rocket 4.1 03:11:10 17° NNW 03:11:10 17° NNW 03:13:42 10° N
Cosmos 2333 Rocket 3.6 03:04:56 10° NNW 03:10:17 38° NE 03:15:37 10° ESE
Spot 4 Rocket 4.5 03:08:09 10° N 03:12:08 51° NNW 03:12:08 51° NNW
ADEOS II 4.4 03:10:26 10° NNW 03:11:06 12° NNW 03:11:06 12° NNW
USA 267 3.8 03:09:58 10° NE 03:16:05 43° NNW 03:17:26 39° NW
IDEFIX/ARIANE 42P 4.2 03:14:38 10° N 03:16:53 22° NNW 03:16:53 22° NNW
Cosmos 2251 Rocket 4.2 03:18:56 31° SSE 03:21:14 54° ESE 03:26:28 10° NNE
BREEZE-M DEB (TANK) 3.4 03:22:53 70° NNW 03:22:58 70° NNW 03:26:05 10° ENE
NOSS 3-2 (A) 4.1 03:16:08 10° NW 03:23:43 81° NE 03:32:17 10° SE
Cosmos 1553 Rocket 4.2 03:26:48 50° WNW 03:26:48 50° WNW 03:32:40 10° N
Geosat 4.3 03:25:19 10° NNE 03:30:19 63° ESE 03:32:20 35° S
Cosmos 2219 Rocket 3.2 03:28:07 10° NNW 03:33:35 47° ENE 03:39:02 10° SE
COSMOS 2487 3.2 03:35:20 49° ENE 03:35:20 49° ENE 03:38:16 10° NNE
PAYLOAD A 4.1 03:34:54 10° N 03:40:06 58° WNW 03:40:52 53° WSW
CENTAUR R/B 3.4 03:32:35 10° NW 03:40:43 74° NE 03:49:37 10° SE
COSMOS 2428 3.7 03:35:43 10° NNW 03:41:13 46° ENE 03:46:42 10° SE
Cosmos 1606 2.6 03:42:18 81° SSE 03:42:28 86° E 03:46:23 10° N
Cosmos 2315 Rocket 4.0 03:37:30 10° S 03:43:42 84° E 03:49:55 10° N
PSLV R/B 3.5 03:42:35 10° N 03:46:57 69° WNW 03:47:30 60° WSW
BREEZE-M DEB (TANK) 4.3 03:50:58 15° NNE 03:50:58 15° NNE 03:51:40 10° NNE
USA 234 3.7 03:44:47 10° SSE 03:50:39 35° SW 03:51:15 35° WSW
BREEZE M DEB (TANK) 2.8 03:51:34 37° N 03:51:59 39° NNE 03:56:51 10° E
Lacrosse 4 Rocket 1.5 03:51:56 55° W 03:52:29 60° WSW 03:56:47 10° SSE
METEOR-M 4.2 03:51:40 10° NNE 03:57:02 78° ESE 04:02:22 10° S
Milstar 3 Cent rocket 4.0 03:57:03 12° SSW 03:57:56 12° S 03:59:52 10° SSE
ATLAS 5 CENTAUR R/B 2.9 03:55:37 12° S 03:58:43 33° ESE 04:02:34 10° NE
ISS -2.3 03:58:45 26° NNW 03:59:40 31° NNE 04:02:43 10° E
Cosmos 1805 Rocket 3.4 03:55:57 10° NNW 04:00:25 73° W 04:04:51 10° S
NOSS 3-4 (A) 4.2 03:55:08 10° SSW 04:00:42 49° ESE 04:06:37 10° NE
NOSS 3-4 (C) 4.2 03:55:14 10° SSW 04:00:47 49° ESE 04:06:42 10° NE
Cosmos 2221 4.0 04:04:42 21° NW 04:04:42 21° NW 04:06:56 10° NNW
Cosmos 2322 3.6 03:58:38 10° NNW 04:04:21 83° WSW 04:10:00 10° SSE
NOSS 3-2 (C) 4.1 03:56:45 10° NW 04:04:22 87° NE 04:12:59 10° SE
COSMO-SKYMED 1 3.7 04:00:35 10° SE 04:04:44 46° ENE 04:08:54 10° N
Cosmos 1992 Rocket 4.2 03:59:52 10° NNW 04:04:50 45° WSW 04:09:45 10° S
Cosmos 1933 3.5 04:02:34 10° S 04:06:34 73° E 04:10:37 10° NNE
Cosmos 2344 3.7 04:06:15 26° WSW 04:10:28 56° NW 04:18:23 10° NE
FENGYUN 3A 3.7 04:05:25 10° N 04:10:47 61° WNW 04:15:59 11° SSW
BREEZE-M DEB (TANK) 4.0 04:08:38 23° WNW 04:11:25 66° NNE 04:27:15 10° ESE
ATLAS 2AS CENTAUR R/B 3.9 04:08:02 10° S 04:15:32 49° ESE 04:23:00 10° NE
CBERS 1 LM4 rocket 4.3 04:14:07 10° N 04:18:52 64° WNW 04:23:32 10° SSW
Landsat 5 3.9 04:18:43 32° WSW 04:19:05 33° W 04:22:38 10° NNW
Meteor 1-20 Rocket 4.2 04:14:52 10° NNW 04:20:36 86° W 04:26:23 10° S
SJ-12 4.2 04:18:04 10° NNE 04:22:08 70° E 04:26:10 10° S
Sich 1 3.1 04:17:52 10° NNW 04:22:12 56° W 04:26:29 10° S
Cosmos 1666 Rocket 3.5 04:19:31 10° N 04:23:54 88° WSW 04:28:17 10° S
Lacrosse 5 1.8 04:21:22 16° NW 04:25:19 63° SW 04:30:18 10° SSE
ALOS 2.7 04:22:13 10° N 04:26:35 40° WNW 04:30:10 15° SW
ADEOS 3.5 04:21:41 10° NNE 04:26:56 86° WNW 04:32:10 10° SSW
H-2A R/B 4.2 04:23:31 10° NNE 04:27:15 41° E 04:30:55 10° S
Cosmos 1140 Rocket 3.8 04:23:59 10° S 04:29:08 68° ESE 04:34:19 10° NNE
Meteor 1-31 Rocket 2.6 04:26:15 10° N 04:30:08 78° WNW 04:33:58 10° SSW
Cosmos 2184 Rocket 4.1 04:25:44 10° N 04:32:05 86° E 04:38:28 10° S
Cosmos 2360 Rocket 3.1 04:27:49 10° NW 04:32:19 25° WSW 04:36:48 10° SSW
CZ-4B R/B 3.9 04:29:27 10° NNE 04:33:54 56° E 04:38:20 10° S
Cosmos 192 4.3 04:29:26 10° NNW 04:34:24 78° WSW 04:39:21 10° SSE
CZ-4B R/B 1.2 04:31:22 10° SSE 04:34:28 79° ENE 04:37:32 10° N
USA 276 2.4 04:36:12 25° W 04:37:48 55° NNW 04:40:58 10° ENE
Cosmos 909 Rocket 4.1 04:31:21 10° SW 04:37:59 67° NW 04:44:16 10° NNE
CZ-2C R/B 3.7 04:34:50 10° NNW 04:38:03 18° WNW 04:39:09 17° W
Cosmos 2237 Rocket 3.2 04:32:44 10° NNW 04:38:17 49° ENE 04:43:44 10° SE
Cosmos 1023 Rocket 4.5 04:36:32 10° SSW 04:41:45 90° E 04:46:57 10° NNE
USA 238 DEB 4.2 04:37:36 10° NW 04:44:29 46° WSW 04:51:37 10° S
USA 238 4.2 04:37:42 10° NW 04:44:35 46° WSW 04:51:43 10° S
H-2A R/B 2.7 04:41:25 10° SSW 04:45:11 31° W 04:48:55 10° NW
SeaSat 1 2.5 04:41:58 10° SSE 04:46:48 57° WSW 04:51:40 10° NW
Cosmos 1484 Rocket 4.0 04:49:39 10° NNW 04:52:27 21° WNW 04:54:50 12° WSW
Cosmos 1437 Rocket 2.8 04:48:34 10° SSW 04:52:36 61° WNW 04:56:37 10° N
SKYMED 2 3.7 04:48:30 10° S 04:52:45 54° W 04:57:02 10° NNW
NOSS 0 Rocket 4.0 04:46:41 10° NNW 04:52:54 89° WSW 04:59:06 10° SSE
ATLAS 3B R/B 3.7 04:46:45 10° NNW 04:53:31 50° NE 05:00:32 10° ESE
Cosmos 1151 Rocket 3.1 04:49:54 10° SSW 04:54:07 53° WNW 04:58:20 10° N
Cosmos 2333 Rocket 2.7 04:49:17 10° NW 04:54:32 37° WSW 04:59:46 10° S
CZ-4C R/B 2.1 04:50:04 10° SW 04:54:57 65° NW 05:00:52 10° NE
Cosmos 1782 2.8 04:52:09 10° SSW 04:56:02 58° W 04:59:57 10° N
Cosmos 2227 Rocket 3.7 04:51:16 10° S 04:56:31 40° ESE 05:01:48 10° NE
Cosmos 1633 Rocket 3.3 04:52:35 10° NNW 04:56:49 47° W 05:01:00 10° SSW
USA 267 4.5 04:52:38 10° NE 04:58:08 30° N 05:03:38 10° WNW
SL-16 R/B 4.2 04:54:39 10° N 04:59:35 29° NE 05:04:29 10° ESE
MOS 1 Rocket 3.5 04:56:11 10° S 05:00:19 43° W 05:04:41 10° NNW
Cosmos 1242 Rocket 3.4 04:57:43 10° S 05:01:05 53° E 05:04:29 10° NNE
Meteor 1-26 Rocket 4.4 05:00:39 10° SSW 05:06:13 55° WNW 05:12:01 10° N
SAR-Lupe-4 4.0 05:02:52 10° SSE 05:06:25 67° ENE 05:09:58 10° N
Cosmos 1666 3.9 05:04:47 10° N 05:08:30 48° ENE 05:12:12 10° SSE
H-2A R/B 4.0 04:56:58 10° W 05:09:20 28° SSW 05:13:23 10° SSE
Cosmos 1689 Rocket 2.1 05:08:33 10° SSE 05:11:21 76° ENE 05:14:12 10° N
Cosmos 2297 Rocket 2.7 05:06:23 10° SSW 05:11:58 68° ESE 05:17:36 10° NNE
Meteor PRIRODA 3.7 05:08:25 10° N 05:12:04 55° WNW 05:15:43 10° SSW
Nadezhda 1 Rocket 4.0 05:09:14 10° SSW 05:15:18 68° W 05:21:32 10° N
Cosmos 2219 Rocket 3.1 05:12:31 10° NW 05:17:16 28° WSW 05:22:00 10° SSW
Cosmos 1954 Rocket 4.0 05:15:50 10° SSW 05:21:06 79° WNW 05:26:23 10° NNE
Cosmos 1980 3.7 05:17:01 10° NNW 05:22:42 75° WSW 05:28:20 10° SSE
CZ-3 R/B 3.7 05:21:30 10° WSW 05:31:21 23° SSW 05:35:55 10° SE
